Location: Hylvaty SDH
(49.9612°N, 16.4057°E)
Time: 20:55:38
(UTC+01:00)

Vanguard 1 Rocket - Pass Details

Date: 08 October 2020
Orbit: 656 x 4221 km, 34.3° (Epoch: 30 October)

Event Time Altitude Azimuth Distance (km) Brightness Sun altitude
Rises 23:18:16 0° 271° (W) 6,464 12.0 -43.0°
Reaches altitude 10° 23:24:17 10° 255° (WSW) 6,048 11.6 -43.4°
Maximum altitude 23:35:37 18° 220° (SW) 6,180 11.3 -44.2°
Enters shadow 23:36:49 18° 216° (SW) 6,252 11.3 -44.3°
Drops below altitude 10° 23:49:24 10° 186° (S) 7,386 - -45.0°
Sets 23:58:35 0° 171° (S) 8,416 - -45.4°
